| time (UTC) | temp C | wind direction | speed KPH | gust KPH | rain 1hr cm | rain 24hr cm | rain mn cm | humidity % | barometer mb |
| 20260506030130 | 13 | 248 | 9.7 | 16.1 | 0.00 | 0.79 | 0.00 | 74 | 1014.8 |
| 20260506023110 | 14 | 248 | 11.3 | 19.3 | 0.00 | 0.79 | 0.00 | 70 | 1014.4 |
| 20260506020112 | 15 | 248 | 14.5 | 24.1 | 0.00 | 0.79 | 0.00 | 70 | 1014.2 |
| 20260506013112 | 15 | 248 | 17.7 | 29.0 | 0.00 | 0.79 | 0.00 | 71 | 1013.9 |
| 20260506010112 | 15 | 248 | 17.7 | 30.6 | 0.00 | 0.79 | 0.00 | 65 | 1013.8 |
| 20260506003111 | 16 | 248 | 19.3 | 32.2 | 0.00 | 0.79 | 0.00 | 66 | 1013.7 |
| 20260506000132 | 16 | 270 | 19.3 | 29.0 | 0.00 | 0.79 | 0.79 | 66 | 1013.6 |
| 20260505233111 | 16 | 248 | 20.9 | 37.0 | 0.00 | 0.79 | 0.79 | 67 | 1013.6 |
| 20260505230111 | 16 | 248 | 20.9 | 35.4 | 0.00 | 0.79 | 0.79 | 66 | 1013.7 |
| 20260505223112 | 16 | 270 | 20.9 | 38.6 | 0.00 | 0.79 | 0.79 | 65 | 1014.0 |
| 20260505220112 | 16 | 248 | 19.3 | 35.4 | 0.00 | 0.79 | 0.79 | 65 | 1014.0 |
| 20260505210111 | 16 | 270 | 16.1 | 27.4 | 0.00 | 0.79 | 0.79 | 65 | 1014.5 |
| 20260505203111 | 16 | 248 | 17.7 | 32.2 | 0.00 | 0.79 | 0.79 | 68 | 1014.8 |
| 20260505200110 | 15 | 248 | 17.7 | 30.6 | 0.00 | 0.79 | 0.79 | 68 | 1014.9 |
| 20260505193111 | 15 | 248 | 16.1 | 27.4 | 0.00 | 0.79 | 0.79 | 70 | 1015.1 |
| 20260505190111 | 15 | 270 | 12.9 | 29.0 | 0.00 | 0.79 | 0.79 | 73 | 1015.2 |
| 20260505183111 | 14 | 270 | 14.5 | 27.4 | 0.00 | 0.79 | 0.79 | 79 | 1015.2 |
| 20260505180111 | 13 | 248 | 14.5 | 29.0 | 0.00 | 0.79 | 0.79 | 82 | 1015.0 |
| 20260505173110 | 13 | 270 | 11.3 | 24.1 | 0.00 | 0.79 | 0.79 | 83 | 1014.4 |
| 20260505170111 | 13 | 293 | 3.2 | 11.3 | 0.00 | 0.79 | 0.79 | 93 | 1014.4 |
| 20260505163110 | 12 | 0.0 | 4.8 | 0.00 | 0.79 | 0.79 | 95 | 1014.4 | |
| 20260505160132 | 11 | 248 | 1.6 | 6.4 | 0.00 | 0.79 | 0.79 | 95 | 1014.0 |
| 20260505153131 | 11 | 293 | 4.8 | 14.5 | 0.03 | 0.79 | 0.79 | 95 | 1014.0 |
| 20260505150110 | 11 | 270 | 14.5 | 30.6 | 0.13 | 0.79 | 0.79 | 95 | 1013.9 |
| 20260505140111 | 11 | 270 | 4.8 | 11.3 | 0.00 | 0.66 | 0.66 | 95 | 1013.2 |
| 20260505130110 | 11 | 248 | 6.4 | 12.9 | 0.28 | 0.66 | 0.66 | 95 | 1012.7 |
| 20260505123110 | 11 | 270 | 4.8 | 12.9 | 0.20 | 0.58 | 0.58 | 95 | 1012.5 |
| 20260505120110 | 12 | 248 | 4.8 | 9.7 | 0.00 | 0.38 | 0.38 | 94 | 1012.6 |
| 20260505113130 | 12 | 248 | 6.4 | 17.7 | 0.03 | 0.38 | 0.38 | 94 | 1012.5 |
| 20260505110110 | 12 | 248 | 6.4 | 17.7 | 0.08 | 0.38 | 0.38 | 94 | 1012.6 |
| 20260505100109 | 11 | 90 | 3.2 | 11.3 | 0.05 | 0.28 | 0.28 | 93 | 1012.7 |
| 20260505093111 | 11 | 90 | 4.8 | 8.0 | 0.05 | 0.23 | 0.23 | 92 | 1012.8 |
| 20260505090109 | 11 | 90 | 4.8 | 11.3 | 0.23 | 0.23 | 0.23 | 90 | 1013.0 |
| 20260505083109 | 12 | 203 | 1.6 | 8.0 | 0.18 | 0.18 | 0.18 | 87 | 1013.4 |
| 20260505080111 | 12 | 0.0 | 4.8 | 0.00 | 0.00 | 0.00 | 85 | 1013.6 | |
| 20260505073109 | 12 | 90 | 3.2 | 6.4 | 0.00 | 0.00 | 0.00 | 84 | 1013.6 |
| 20260505070109 | 12 | 90 | 4.8 | 9.7 | 0.00 | 0.00 | 0.00 | 84 | 1013.7 |
| 20260505063110 | 12 | 113 | 3.2 | 6.4 | 0.00 | 0.00 | 0.00 | 84 | 1013.9 |
| 20260505060109 | 13 | 0.0 | 4.8 | 0.00 | 0.00 | 0.00 | 83 | 1014.2 | |
| 20260505053109 | 13 | 0.0 | 4.8 | 0.00 | 0.00 | 0.00 | 83 | 1014.5 | |
| 20260505050130 | 13 | 248 | 3.2 | 8.0 | 0.00 | 0.00 | 0.00 | 83 | 1014.7 |
| 20260505040130 | 13 | 225 | 6.4 | 12.9 | 0.00 | 0.00 | 0.00 | 83 | 1014.6 |
| 20260505033109 | 13 | 225 | 6.4 | 16.1 | 0.00 | 0.00 | 0.00 | 81 | 1014.3 |